LRSM Weather Reports


time (UTC)temp
C
wind
direction
speed
KPH
gust
KPH
rain 1hr
cm
rain 24hr
cm
rain mn
cm
humidity
%
barometer
mb
20260507093333 22 180 16.1 0.0 0.00 0.00 0.00 47 1014.0
20260507091834 21 180 17.7 0.0 0.00 0.00 0.00 50 1014.0
20260507090332 21 180 17.7 0.0 0.00 0.00 0.00 50 1014.0
20260507084832 21 180 16.1 0.0 0.00 0.00 0.00 50 1014.0
20260507083333 21 180 16.1 0.0 0.00 0.00 0.00 50 1014.0
20260507081832 21 180 17.7 0.0 0.00 0.00 0.00 46 1013.0
20260507080333 21 180 17.7 0.0 0.00 0.00 0.00 46 1013.0
20260507074833 20 180 16.1 0.0 0.00 0.00 0.00 53 1013.0
20260507073332 20 180 16.1 0.0 0.00 0.00 0.00 53 1013.0
20260507071832 20 210 12.9 0.0 0.00 0.00 0.00 53 1013.0
20260507070332 20 210 12.9 0.0 0.00 0.00 0.00 53 1013.0
20260507064832 20 200 12.9 0.0 0.00 0.00 0.00 53 1013.0
20260507063332 20 200 12.9 0.0 0.00 0.00 0.00 53 1013.0
20260507061842 20 180 11.3 0.0 0.00 0.00 0.00 49 1013.0
20260507060332 20 180 11.3 0.0 0.00 0.00 0.00 49 1013.0
20260507054832 18 170 9.7 0.0 0.00 0.00 0.00 52 1013.0
20260507053340 18 170 9.7 0.0 0.00 0.00 0.00 52 1013.0
20260507051833 17 170 8.0 0.0 0.00 0.00 0.00 56 1012.0
20260507050332 17 170 8.0 0.0 0.00 0.00 0.00 56 1012.0
20260507044829 16 140 9.7 0.0 0.00 0.00 0.00 63 1012.0
20260507043332 16 140 9.7 0.0 0.00 0.00 0.00 63 1012.0
20260507041832 13 150 4.8 0.0 0.00 0.00 0.00 67 1012.0
20260507040332 13 150 4.8 0.0 0.00 0.00 0.00 67 1012.0
20260507034829 13 210 8.0 0.0 0.00 0.00 0.00 67 1012.0
20260507033331 13 210 8.0 0.0 0.00 0.00 0.00 67 1012.0
20260507031832 12 270 11.3 0.0 0.00 0.00 0.00 72 1012.0
20260507030332 12 270 11.3 0.0 0.00 0.00 0.00 72 1012.0
20260507023332 11 100 3.2 0.0 0.00 0.00 0.00 77 1012.0
20260507021832 11 70 4.8 0.0 0.00 0.00 0.00 77 1011.0
20260507020332 11 70 4.8 0.0 0.00 0.00 0.00 77 1011.0
20260507014832 12 80 4.8 0.0 0.00 0.00 0.00 72 1011.0
20260507013332 12 80 4.8 0.0 0.00 0.00 0.00 72 1011.0
20260507011832 11 0 0.0 0.0 0.00 0.00 0.00 77 1011.0
20260507010332 11 0 0.0 0.0 0.00 0.00 0.00 77 1011.0
20260507004832 11 0 0.0 0.0 0.00 0.00 0.00 77 1011.0
20260507003332 11 0 0.0 0.0 0.00 0.00 0.00 77 1011.0
20260507001832 12 80 4.8 0.0 0.00 0.00 0.00 72 1011.0
20260507000332 12 80 4.8 0.0 0.00 0.00 0.00 72 1011.0
20260506234832 12 100 8.0 0.0 0.00 0.00 0.00 72 1011.0
20260506233332 12 100 8.0 0.0 0.00 0.00 0.00 72 1011.0
20260506231833 12 190 8.0 0.0 0.00 0.00 0.00 72 1011.0
20260506230332 12 190 8.0 0.0 0.00 0.00 0.00 72 1011.0
20260506224828 12 200 8.0 0.0 0.00 0.00 0.00 72 1011.0
20260506223332 12 200 8.0 0.0 0.00 0.00 0.00 72 1011.0
20260506221832 12 0 0.0 0.0 0.00 0.00 0.00 72 1011.0
20260506220331 12 0 0.0 0.0 0.00 0.00 0.00 72 1011.0
20260506214848 12 0 0.0 0.0 0.00 0.00 0.00 72 1011.0
20260506213332 12 0 0.0 0.0 0.00 0.00 0.00 72 1011.0
20260506211829 13 170 3.2 0.0 0.00 0.00 0.00 67 1011.0
20260506210332 13 170 3.2 0.0 0.00 0.00 0.00 67 1011.0
20260506204833 15 170 8.0 0.0 0.00 0.00 0.00 63 1011.0
20260506203332 15 170 8.0 0.0 0.00 0.00 0.00 63 1011.0
20260506201829 16 180 8.0 0.0 0.00 0.00 0.00 55 1011.0
20260506200332 16 180 8.0 0.0 0.00 0.00 0.00 55 1011.0
20260506194851 16 170 8.0 0.0 0.00 0.00 0.00 59 1011.0
20260506193356 16 170 8.0 0.0 0.00 0.00 0.00 59 1011.0
20260506191833 17 190 3.2 0.0 0.00 0.00 0.00 52 1011.0
20260506190332 17 190 3.2 0.0 0.00 0.00 0.00 52 1011.0
20260506184837 18 230 4.8 0.0 0.00 0.00 0.00 49 1011.0
20260506183332 18 230 4.8 0.0 0.00 0.00 0.00 49 1011.0
20260506181832 18 260 9.7 0.0 0.00 0.00 0.00 49 1010.0
20260506180333 18 260 9.7 0.0 0.00 0.00 0.00 49 1010.0
20260506174832 21 260 11.3 0.0 0.00 0.00 0.00 43 1010.0
20260506173332 21 260 11.3 0.0 0.00 0.00 0.00 43 1010.0
20260506171832 22 270 12.9 0.0 0.00 0.00 0.00 38 1010.0
20260506170332 22 270 12.9 0.0 0.00 0.00 0.00 38 1010.0
20260506164832 23 270 14.5 0.0 0.00 0.00 0.00 36 1010.0
20260506163332 23 270 14.5 0.0 0.00 0.00 0.00 36 1010.0
20260506161832 26 250 16.1 0.0 0.00 0.00 0.00 34 1010.0
20260506160332 26 250 16.1 0.0 0.00 0.00 0.00 34 1010.0
20260506154833 26 250 14.5 0.0 0.00 0.00 0.00 32 1011.0
20260506153332 26 250 14.5 0.0 0.00 0.00 0.00 32 1011.0
20260506151832 26 240 24.1 0.0 0.00 0.00 0.00 30 1011.0
20260506150338 26 240 24.1 0.0 0.00 0.00 0.00 30 1011.0
20260506144832 27 250 24.1 0.0 0.00 0.00 0.00 28 1011.0
20260506143344 27 250 24.1 0.0 0.00 0.00 0.00 28 1011.0
20260506141832 27 250 22.5 0.0 0.00 0.00 0.00 28 1011.0
20260506140450 27 250 22.5 0.0 0.00 0.00 0.00 28 1011.0
20260506134857 27 210 17.7 0.0 0.00 0.00 0.00 28 1011.0
20260506133332 27 210 17.7 0.0 0.00 0.00 0.00 28 1011.0
20260506131832 27 260 12.9 0.0 0.00 0.00 0.00 30 1011.0
20260506130341 27 260 12.9 0.0 0.00 0.00 0.00 30 1011.0
20260506124833 27 230 20.9 0.0 0.00 0.00 0.00 28 1012.0
20260506123332 27 230 20.9 0.0 0.00 0.00 0.00 28 1012.0
20260506121833 26 240 20.9 0.0 0.00 0.00 0.00 32 1012.0
20260506120332 26 240 20.9 0.0 0.00 0.00 0.00 32 1012.0
20260506114832 26 250 22.5 0.0 0.00 0.00 0.00 32 1012.0
20260506113333 26 250 22.5 0.0 0.00 0.00 0.00 32 1012.0
20260506111832 26 250 22.5 0.0 0.00 0.00 0.00 32 1013.0
20260506110332 26 250 22.5 0.0 0.00 0.00 0.00 32 1013.0
20260506104832 25 250 22.5 0.0 0.00 0.00 0.00 34 1013.0
20260506103332 25 250 22.5 0.0 0.00 0.00 0.00 34 1013.0
20260506101832 25 260 20.9 0.0 0.00 0.00 0.00 34 1013.0
20260506100332 25 260 20.9 0.0 0.00 0.00 0.00 34 1013.0
20260506094832 25 250 17.7 0.0 0.00 0.00 0.00 34 1013.0